Regional Weather Roundup
Issued by NWS

Home | Current Version | Previous Version | Graphics & Text | Print | Product List | Glossary On
Versions: 1 2 3 4 5 6 7 8 9 10 11 12 13 14 15 16 17 18 19 20 21 22 23 24 25 26 27 28 29 30 31 32 33 34 35 36 37 38 39 40 41 42 43 44 45 46 47 48 49 50
764
ASUS43 KDMX 281608
RWRIA

WEATHER ROUNDUP FOR IOWA
NATIONAL WEATHER SERVICE DES MOINES IA
1100 AM CDT WED SEP 28 2016

NOTE: "FAIR" INDICATES FEW OR NO CLOUDS BELOW 12,000 FEET WITH NO
SIGNIFICANT WEATHER AND/OR OBSTRUCTIONS TO VISIBILITY.

* - THESE STATIONS ARE NOT NWS STATIONS...THUS NOT UNDER NWS
QUALITY CONTROL.  THEY ALSO DO NOT REPORT WEATHER SUCH
AS PRECIPITATION OR FOG.

IAZ001>003-012>014-020>022-031>034-043>046-281700-
   NORTHWEST IOWA

CITY           SKY/WX    TMP DP  RH WIND       PRES   REMARKS
CARROLL *      CLOUDY    54  46  76 N14       30.16R
CHEROKEE *     CLOUDY    49  46  90 N10       30.20R
DENISON *      CLOUDY    52  45  76 N9        30.17R
LE MARS *      CLOUDY    52  46  82 N9        30.23R
ORANGE CITY *  CLOUDY    48  45  87 NE8       30.22R
SHELDON *      CLOUDY    48  46  93 N9G16     30.20R
SIOUX CITY     MOSUNNY   56  46  69 NE10      30.21R
SPENCER        CLOUDY    54  46  74 N13       30.18R
STORM LAKE *   CLOUDY    50  45  81 N13G21    30.19R
$$

IAZ055>058-069>071-079>083-090>094-281700-
   SOUTHWEST IOWA

CITY           SKY/WX    TMP DP  RH WIND       PRES   REMARKS
ATLANTIC *     CLOUDY    52  45  76 N14       30.16R
AUDUBON *      CLOUDY    52  46  82 N12       30.17R
CLARINDA *       N/A     57  46  67 MISG      30.17R
COUNCIL BLFS * PTSUNNY   55  45  67 N13G21    30.17R HAZE
CRESTON *      CLOUDY    54  45  71 N16G23    30.14R
HARLAN  *      CLOUDY    52  45  76 N12G20    30.21R
LAMONI         CLOUDY    54  46  74 N15       30.10R
RED OAK *      PTSUNNY   57  48  72 N12G18    30.17R
SHENANDOAH *   MOSUNNY   57  45  62 N13G21    30.16R
$$

IAZ047>049-059>061-072>074-084-281700-
   CENTRAL IOWA

CITY           SKY/WX    TMP DP  RH WIND       PRES   REMARKS
AMES           CLOUDY    57  48  72 N16       30.10R
ANKENY *         N/A    N/A N/A N/A MISG        N/A
BOONE *        CLOUDY    54  46  76 NW17      30.11R
CHARITON *       N/A     55  45  67 N13       30.09R
DES MOINES     CLOUDY    56  46  69 N10       30.10R
GRINNELL*      PTSUNNY   60  47  63 N14G20    30.06R
KNOXVILLE *    CLOUDY    55  45  67 N12G21    30.06S
MARSHALLTOWN   PTSUNNY   60  48  64 N18G28    30.06R
NEWTON *       CLOUDY    57  46  67 N15G21    30.06R
PELLA *        CLOUDY    58  46  64 N9        30.08R
PERRY *        CLOUDY    56  47  73 N12G22    30.13S
$$

IAZ004>006-015-016-023>025-035-036-281700-
   NORTH CENTRAL IOWA

CITY           SKY/WX    TMP DP  RH WIND       PRES   REMARKS
ALGONA *       CLOUDY    55  46  71 N14G21    30.15R
CLARION *      CLOUDY    55  48  76 N15       30.12R
ESTHERVILLE    CLOUDY    53  48  83 N18       30.17R
FORT DODGE *   CLOUDY    54  45  71 N8G16     30.15S
MASON CITY     CLOUDY    56  47  71 N20G25    30.11S
FOREST CITY *  CLOUDY    54  48  82 N16       30.12S
WEBSTER CITY * CLOUDY    54  48  82 N13G23    30.11R
IOWA FALLS *   CLOUDY    57  47  68 N16G23    30.10R
$$

IAZ007>011-017>019-026>030-037>042-050>054-066-281700-
   NORTHEAST IOWA

CITY           SKY/WX    TMP DP  RH WIND       PRES   REMARKS
CEDAR RAPIDS   CLOUDY    54  49  83 NW16      30.02R
CHARLES CITY * CLOUDY    55  50  82 N12G18    30.08R
CLINTON *      CLOUDY    56  49  77 N15       29.99R
DECORAH *      CLOUDY    55  52  88 N12G18    30.03R
DUBUQUE        CLOUDY    54  50  86 N13       30.00R
MONTICELLO *   CLOUDY    55  50  82 N14G21    30.01R
OELWEIN *      CLOUDY    55  50  82 N15       30.05R
WATERLOO       CLOUDY    56  47  71 N18       30.05R
$$

IAZ064-065-067-068-078-281700-
   EAST CENTRAL IOWA

CITY           SKY/WX    TMP DP  RH WIND       PRES   REMARKS
DAVENPORT      CLOUDY    56  47  71 N14       29.99R
IOWA CITY      CLOUDY    56  47  71 N9        30.03R
MT. PLEASANT * CLOUDY    58  47  68 N16       30.03R
MUSCATINE *    CLOUDY    57  46  67 N14G21    30.01R
QUAD CITIES    CLOUDY    57  46  66 NW12G20   29.98R
$$

IAZ062-063-075>077-085>089-095>099-281700-
   SOUTHEAST IOWA

CITY           SKY/WX    TMP DP  RH WIND       PRES   REMARKS
BURLINGTON     CLOUDY    55  46  71 N13       30.00R
FAIRFIELD *    CLOUDY    55  45  67 N16       30.03R
FORT MADISON * CLOUDY    55  46  71 N10G18    30.02R
KEOKUK *       CLOUDY    57  45  62 NW13      30.01R
OSKALOOSA *    CLOUDY    57  46  65 N12       30.06R
OTTUMWA        CLOUDY   N/A N/A N/A N16       30.05R
WASHINGTON *     N/A    N/A N/A N/A MISG        N/A
$$

ABBREVIATIONS USED IN REMARKS
   TC - TEMPERATURES IN CELSIUS
  WCI - WIND CHILL INDEX
   HX - HEAT INDEX
  VSB - VISIBILITY
$$





USA.gov is the U.S. government's official web portal to all federal, state and local government web resources and services.